Terminal Aerodrome Forecast
Issued by NWS Spokane, WA

Home | Current Version | Previous Version | Text Only | Print | Product List | Glossary On
Versions: 1 2 3 4 5 6 7 8 9 10 11 12 13 14 15 16 17 18 19 20 21 22 23 24 25 26 27 28 29 30 31 32 33 34 35 36 37 38 39 40 41 42 43 44 45 46 47 48
000
FTUS46 KOTX 240526
TAFEAT
TAF
KEAT 240526Z 2406/2506 13005KT P6SM SCT070 OVC090
     FM240700 VRB04KT P6SM -RA OVC040
     FM241300 VRB04KT 5SM -RA BR BKN025 OVC040
     FM241600 VRB04KT P6SM SCT025 OVC050
     FM242100 19005KT P6SM VCSH SCT030 BKN080
     FM250000 30005KT P6SM BKN100=

USA.gov is the U.S. government's official web portal to all federal, state and local government web resources and services.